SIA158 WSSS-VDPP

Flight info

Callsign SIA158
Flight time 1h 34m
Altitude 39000
Route VMR9B VMR L642 ENREP/N0485F400 M753 IPRIX/K0898F400 M753 BITOD/K0895F410 M755 KISAN NARET3A
Aircraft A359/H-SDE1E2E3GHIJ1J2J3J5M1P2RWXYZ/LB1D1

Departure

Time 2026-04-15 06:57
Airport Singapore Changi Airport (WSSS)

Arrival

Time 2026-04-15 08:32
Airport Phnom Penh International Airport (VDPP)
Time Latitude Longitude Altitude Speed Heading
2026-04-15 06:00 1.35758 103.99340 35 ft 0 kts 145°
2026-04-15 06:45 1.35761 103.99338 63 ft 3 kts 145°
2026-04-15 06:45 1.35783 103.99322 35 ft 4 kts 143°
2026-04-15 06:45 1.35804 103.99307 34 ft 4 kts 137°
2026-04-15 06:45 1.35816 103.99293 32 ft 4 kts 96°
2026-04-15 06:46 1.35814 103.99276 33 ft 2 kts 54°
2026-04-15 06:46 1.35822 103.99285 33 ft 4 kts 51°
2026-04-15 06:46 1.35838 103.99307 35 ft 4 kts 53°
2026-04-15 06:46 1.35844 103.99314 36 ft 0 kts 55°
2026-04-15 06:51 1.35847 103.99319 36 ft 7 kts 55°
2026-04-15 06:51 1.35876 103.99395 37 ft 13 kts 85°
2026-04-15 06:51 1.35895 103.99462 37 ft 10 kts 53°
2026-04-15 06:51 1.35956 103.99500 37 ft 12 kts 25°
2026-04-15 06:52 1.36037 103.99535 37 ft 14 kts 22°
2026-04-15 06:52 1.36132 103.99574 35 ft 16 kts 22°
2026-04-15 06:52 1.36241 103.99620 37 ft 18 kts 23°
2026-04-15 06:52 1.36345 103.99664 36 ft 8 kts 23°
2026-04-15 06:53 1.36392 103.99684 36 ft 8 kts 22°
2026-04-15 06:53 1.36431 103.99725 36 ft 9 kts 74°
2026-04-15 06:53 1.36416 103.99785 36 ft 10 kts 112°
2026-04-15 06:53 1.36402 103.99820 36 ft 3 kts 114°
2026-04-15 06:54 1.36400 103.99824 36 ft 0 kts 114°
2026-04-15 06:55 1.36369 103.99859 36 ft 13 kts 144°
2026-04-15 06:55 1.36277 103.99883 36 ft 15 kts 172°
2026-04-15 06:55 1.36171 103.99886 36 ft 16 kts 194°
2026-04-15 06:56 1.36125 103.99868 36 ft 0 kts 202°
2026-04-15 06:56 1.36116 103.99864 37 ft 13 kts 202°
2026-04-15 06:56 1.35811 103.99736 37 ft 83 kts 203°
2026-04-15 06:57 1.35086 103.99435 37 ft 143 kts 204°
2026-04-15 06:57 1.34048 103.99002 409 ft 165 kts 200°
2026-04-15 06:57 1.33007 103.98568 1260 ft 161 kts 203°
2026-04-15 06:57 1.31937 103.98111 1641 ft 176 kts 204°
2026-04-15 06:58 1.30750 103.97602 1829 ft 196 kts 204°
2026-04-15 06:58 1.29440 103.97044 2088 ft 209 kts 204°
2026-04-15 06:58 1.28078 103.96466 2535 ft 214 kts 204°
2026-04-15 06:58 1.26693 103.95882 2875 ft 227 kts 203°
2026-04-15 06:59 1.25158 103.95251 3087 ft 248 kts 201°
2026-04-15 06:59 1.23424 103.94942 3532 ft 259 kts 177°
2026-04-15 06:59 1.21724 103.95524 4143 ft 263 kts 147°
2026-04-15 06:59 1.20296 103.96681 4731 ft 267 kts 140°
2026-04-15 07:00 1.18925 103.97921 5301 ft 270 kts 140°
2026-04-15 07:00 1.17541 103.99197 5906 ft 272 kts 136°
2026-04-15 07:00 1.16475 104.00756 6487 ft 276 kts 114°
2026-04-15 07:00 1.16167 104.02663 7000 ft 283 kts 86°
2026-04-15 07:01 1.16767 104.04542 7530 ft 289 kts 60°
2026-04-15 07:01 1.17955 104.06170 8089 ft 292 kts 52°
2026-04-15 07:01 1.19252 104.07750 8654 ft 294 kts 51°
2026-04-15 07:01 1.20757 104.09137 9186 ft 297 kts 34°
2026-04-15 07:02 1.22551 104.10183 9768 ft 300 kts 29°
2026-04-15 07:02 1.24403 104.11193 10223 ft 306 kts 29°
2026-04-15 07:02 1.26392 104.12051 10431 ft 320 kts 15°
2026-04-15 07:02 1.28644 104.12175 10623 ft 332 kts 350°
2026-04-15 07:03 1.30787 104.11357 10823 ft 342 kts 326°
2026-04-15 07:04 1.38304 104.04996 11979 ft 369 kts 319°
2026-04-15 07:04 1.40273 104.03331 12395 ft 372 kts 320°
2026-04-15 07:05 1.47527 104.00259 13619 ft 378 kts 342°
2026-04-15 07:05 1.50036 103.99463 13978 ft 380 kts 342°
2026-04-15 07:05 1.52555 103.98655 14342 ft 382 kts 342°
2026-04-15 07:05 1.55098 103.97835 14678 ft 384 kts 342°
2026-04-15 07:06 1.57654 103.97010 15034 ft 386 kts 342°
2026-04-15 07:06 1.60213 103.96182 15388 ft 388 kts 342°
2026-04-15 07:06 1.62786 103.95350 15736 ft 390 kts 342°
2026-04-15 07:06 1.65377 103.94512 16084 ft 392 kts 342°
2026-04-15 07:07 1.67106 103.93952 16314 ft 393 kts 342°
2026-04-15 07:07 1.70603 103.92820 16765 ft 396 kts 342°
2026-04-15 07:07 1.73201 103.91980 17109 ft 398 kts 342°
2026-04-15 07:07 1.75922 103.91254 17442 ft 400 kts 350°
2026-04-15 07:08 1.78660 103.90966 17784 ft 402 kts 356°
2026-04-15 07:08 1.81467 103.90801 18111 ft 404 kts 357°
2026-04-15 07:08 1.84285 103.90632 18404 ft 406 kts 356°
2026-04-15 07:09 1.89960 103.90278 18989 ft 410 kts 356°
2026-04-15 07:09 1.92816 103.90098 19278 ft 411 kts 356°
2026-04-15 07:09 1.94715 103.89977 19485 ft 412 kts 356°
2026-04-15 07:09 1.98516 103.89736 19869 ft 414 kts 356°
2026-04-15 07:10 2.01403 103.89552 20149 ft 416 kts 356°
2026-04-15 07:10 2.04302 103.89368 20438 ft 418 kts 357°
2026-04-15 07:10 2.07216 103.89182 20721 ft 419 kts 357°
2026-04-15 07:10 2.10137 103.88997 20999 ft 421 kts 357°
2026-04-15 07:11 2.13071 103.88810 21267 ft 423 kts 356°
2026-04-15 07:11 2.16017 103.88622 21544 ft 424 kts 357°
2026-04-15 07:11 2.18972 103.88434 21805 ft 426 kts 357°
2026-04-15 07:11 2.21938 103.88245 22084 ft 428 kts 357°
2026-04-15 07:12 2.24916 103.88056 22337 ft 429 kts 357°
2026-04-15 07:12 2.27905 103.87865 22568 ft 431 kts 357°
2026-04-15 07:12 2.30871 103.87676 22802 ft 433 kts 357°
2026-04-15 07:12 2.33921 103.87482 23060 ft 434 kts 357°
2026-04-15 07:13 2.36905 103.87299 23306 ft 436 kts 358°
2026-04-15 07:13 2.39936 103.87345 23513 ft 437 kts
2026-04-15 07:13 2.40958 103.87442 23574 ft 437 kts
2026-04-15 07:13 2.45992 103.88123 23898 ft 439 kts
2026-04-15 07:14 2.49012 103.88603 24103 ft 440 kts
2026-04-15 07:14 2.52049 103.89094 24307 ft 442 kts
2026-04-15 07:14 2.55098 103.89580 24502 ft 443 kts
2026-04-15 07:14 2.58110 103.90048 24696 ft 444 kts
2026-04-15 07:15 2.61176 103.90516 24897 ft 446 kts
2026-04-15 07:15 2.64253 103.90980 25085 ft 447 kts
2026-04-15 07:15 2.67348 103.91443 25281 ft 449 kts
2026-04-15 07:15 2.70444 103.91905 25475 ft 450 kts
2026-04-15 07:16 2.73562 103.92371 25676 ft 451 kts
2026-04-15 07:16 2.76678 103.92837 25878 ft 453 kts
2026-04-15 07:16 2.79754 103.93297 26072 ft 454 kts
2026-04-15 07:16 2.82894 103.93767 26264 ft 456 kts
2026-04-15 07:17 2.86038 103.94239 26465 ft 457 kts
2026-04-15 07:17 2.88123 103.94551 26614 ft 458 kts
2026-04-15 07:17 2.91274 103.95024 26807 ft 459 kts
2026-04-15 07:17 2.94449 103.95508 27003 ft 461 kts
2026-04-15 07:18 2.97629 103.95994 27191 ft 462 kts
2026-04-15 07:18 3.00817 103.96479 27401 ft 464 kts
2026-04-15 07:18 3.04007 103.96964 27597 ft 466 kts
2026-04-15 07:18 3.08270 103.97612 27862 ft 468 kts
2026-04-15 07:19 3.11493 103.98102 28085 ft 469 kts
2026-04-15 07:19 3.13641 103.98429 28216 ft 470 kts
2026-04-15 07:19 3.16924 103.98929 28437 ft 472 kts
2026-04-15 07:19 3.20173 103.99424 28621 ft 474 kts
2026-04-15 07:20 3.23403 103.99916 28819 ft 476 kts
2026-04-15 07:20 3.26673 104.00415 29028 ft 477 kts
2026-04-15 07:20 3.29966 104.00917 29244 ft 478 kts
2026-04-15 07:20 3.33264 104.01419 29441 ft 480 kts
2026-04-15 07:21 3.36573 104.01923 29649 ft 482 kts
2026-04-15 07:21 3.39907 104.02423 29861 ft 484 kts
2026-04-15 07:21 3.43242 104.02918 30024 ft 486 kts
2026-04-15 07:21 3.46592 104.03415 30204 ft 488 kts
2026-04-15 07:22 3.49923 104.03910 30389 ft 489 kts
2026-04-15 07:22 3.53330 104.04418 30577 ft 491 kts
2026-04-15 07:22 3.56683 104.04919 30755 ft 493 kts
2026-04-15 07:22 3.60092 104.05428 30931 ft 495 kts
2026-04-15 07:23 3.63507 104.05939 31120 ft 497 kts
2026-04-15 07:23 3.66921 104.06450 31286 ft 498 kts
2026-04-15 07:23 3.70373 104.06966 31463 ft 500 kts
2026-04-15 07:23 3.73822 104.07482 31625 ft 502 kts
2026-04-15 07:24 3.77281 104.07999 31802 ft 503 kts
2026-04-15 07:24 3.80752 104.08518 31962 ft 505 kts
2026-04-15 07:24 3.84223 104.09038 32139 ft 506 kts
2026-04-15 07:24 3.87725 104.09562 32301 ft 508 kts
2026-04-15 07:25 3.91170 104.10084 32460 ft 509 kts
2026-04-15 07:25 3.94689 104.10612 32614 ft 510 kts
2026-04-15 07:25 3.98202 104.11137 32765 ft 512 kts
2026-04-15 07:25 4.01747 104.11666 32913 ft 513 kts
2026-04-15 07:26 4.05287 104.12194 33052 ft 515 kts
2026-04-15 07:26 4.08842 104.12726 33238 ft 515 kts
2026-04-15 07:26 4.12396 104.13258 33445 ft 515 kts
2026-04-15 07:26 4.15892 104.13781 33633 ft 516 kts
2026-04-15 07:27 4.19447 104.14314 33854 ft 516 kts
2026-04-15 07:27 4.22999 104.14846 34037 ft 516 kts
2026-04-15 07:27 4.26548 104.15378 34269 ft 515 kts
2026-04-15 07:27 4.30098 104.15910 34510 ft 515 kts
2026-04-15 07:28 4.33635 104.16441 34743 ft 514 kts
2026-04-15 07:28 4.37181 104.16972 34986 ft 513 kts
2026-04-15 07:28 4.40718 104.17503 35248 ft 513 kts
2026-04-15 07:28 4.44259 104.18034 35531 ft 512 kts
2026-04-15 07:29 4.47727 104.18554 35782 ft 511 kts
2026-04-15 07:29 4.51241 104.19081 36042 ft 510 kts
2026-04-15 07:29 4.54749 104.19607 36305 ft 510 kts
2026-04-15 07:29 4.58263 104.20135 36592 ft 508 kts
2026-04-15 07:30 4.61750 104.20658 36866 ft 507 kts
2026-04-15 07:30 4.65249 104.21183 37160 ft 506 kts
2026-04-15 07:30 4.68725 104.21705 37416 ft 506 kts
2026-04-15 07:30 4.72208 104.22228 37695 ft 505 kts
2026-04-15 07:31 4.75677 104.22748 37976 ft 504 kts
2026-04-15 07:31 4.79153 104.23270 38229 ft 503 kts
2026-04-15 07:31 4.82631 104.23792 38485 ft 503 kts
2026-04-15 07:31 4.86057 104.24257 38694 ft 502 kts
2026-04-15 07:32 4.89558 104.24350 38823 ft 503 kts 358°
2026-04-15 07:32 4.93073 104.24234 38839 ft 507 kts 357°
2026-04-15 07:32 5.00173 104.23864 38837 ft 514 kts 356°
2026-04-15 07:33 5.07348 104.23453 38841 ft 517 kts 356°
2026-04-15 07:33 5.14501 104.23059 38841 ft 517 kts 357°
2026-04-15 07:34 5.21700 104.22674 38841 ft 517 kts 357°
2026-04-15 07:34 5.28909 104.22292 38841 ft 518 kts 357°
2026-04-15 07:35 5.36110 104.21910 38837 ft 518 kts 357°
2026-04-15 07:35 5.43325 104.21527 38841 ft 518 kts 357°
2026-04-15 07:36 5.50484 104.21146 38840 ft 518 kts 357°
2026-04-15 07:36 5.57693 104.20762 38836 ft 518 kts 357°
2026-04-15 07:37 5.64889 104.20379 38839 ft 517 kts 357°
2026-04-15 07:37 5.72093 104.19995 38838 ft 517 kts 357°
2026-04-15 07:38 5.79236 104.19615 38839 ft 517 kts 357°
2026-04-15 07:38 5.86415 104.19232 38842 ft 517 kts 357°
2026-04-15 07:39 5.93619 104.18849 38842 ft 517 kts 357°
2026-04-15 07:39 6.00811 104.18465 38841 ft 517 kts 357°
2026-04-15 07:40 6.07979 104.18083 38842 ft 517 kts 357°
2026-04-15 07:40 6.15169 104.17700 38845 ft 517 kts 357°
2026-04-15 07:41 6.22320 104.17319 38841 ft 517 kts 356°
2026-04-15 07:41 6.29496 104.16936 38842 ft 517 kts 356°
2026-04-15 07:42 6.36706 104.16551 38843 ft 517 kts 356°
2026-04-15 07:42 6.43899 104.16167 38842 ft 517 kts 356°
2026-04-15 07:43 6.51035 104.15786 38843 ft 517 kts 356°
2026-04-15 07:43 6.58241 104.15401 38844 ft 517 kts 356°
2026-04-15 07:44 6.65430 104.15017 38845 ft 517 kts 356°
2026-04-15 07:44 6.72619 104.14633 38849 ft 517 kts 356°
2026-04-15 07:45 6.79807 104.14249 38846 ft 517 kts 356°
2026-04-15 07:45 6.86959 104.13867 38846 ft 517 kts 356°
2026-04-15 07:46 6.94127 104.13483 38845 ft 517 kts 356°
2026-04-15 07:46 7.01348 104.13098 38847 ft 517 kts 356°
2026-04-15 07:47 7.08537 104.12724 38848 ft 517 kts 356°
2026-04-15 07:47 7.15727 104.12352 38845 ft 517 kts 356°
2026-04-15 07:48 7.22902 104.11982 38844 ft 517 kts 356°
2026-04-15 07:48 7.26448 104.12067 38849 ft 517 kts
2026-04-15 07:48 7.30021 104.12541 38846 ft 517 kts
2026-04-15 07:49 7.37139 104.13692 38845 ft 517 kts
2026-04-15 07:49 7.44250 104.14911 38842 ft 517 kts
2026-04-15 07:50 7.51295 104.16106 38842 ft 517 kts
2026-04-15 07:50 7.58421 104.17299 38860 ft 518 kts
2026-04-15 07:51 7.65541 104.18487 39293 ft 510 kts
2026-04-15 07:51 7.69005 104.19065 39863 ft 500 kts
2026-04-15 07:51 7.72368 104.19626 40443 ft 491 kts
2026-04-15 07:52 7.75725 104.20187 40767 ft 488 kts
2026-04-15 07:52 7.79081 104.20748 40848 ft 490 kts
2026-04-15 07:52 7.85876 104.21884 40841 ft 498 kts
2026-04-15 07:53 7.92773 104.23037 40841 ft 503 kts
2026-04-15 07:53 7.99679 104.24192 40842 ft 507 kts
2026-04-15 07:54 8.06656 104.25360 40843 ft 507 kts
2026-04-15 07:54 8.13584 104.26520 40842 ft 507 kts
2026-04-15 07:55 8.20540 104.27685 40844 ft 506 kts
2026-04-15 07:56 8.30935 104.29426 40843 ft 505 kts
2026-04-15 07:56 8.37873 104.30589 40843 ft 504 kts
2026-04-15 07:57 8.44793 104.31749 40843 ft 504 kts
2026-04-15 07:57 8.51723 104.32912 40843 ft 504 kts
2026-04-15 07:58 8.58658 104.34075 40840 ft 504 kts
2026-04-15 07:58 8.65544 104.35231 40839 ft 504 kts
2026-04-15 07:59 8.72464 104.36393 40838 ft 504 kts
2026-04-15 07:59 8.78215 104.37359 40841 ft 504 kts
2026-04-15 08:00 8.86302 104.38718 40839 ft 503 kts
2026-04-15 08:00 8.93191 104.39876 40837 ft 503 kts
2026-04-15 08:01 8.98991 104.40852 40834 ft 503 kts
2026-04-15 08:01 9.07031 104.42204 40835 ft 503 kts
2026-04-15 08:02 9.13907 104.43361 40833 ft 503 kts
2026-04-15 08:02 9.20816 104.44524 40834 ft 503 kts
2026-04-15 08:03 9.27740 104.45690 40832 ft 503 kts
2026-04-15 08:03 9.34649 104.46856 40832 ft 503 kts
2026-04-15 08:04 9.40380 104.47821 40827 ft 502 kts
2026-04-15 08:04 9.44928 104.48588 40658 ft 495 kts
2026-04-15 08:04 9.47219 104.48974 40255 ft 494 kts
2026-04-15 08:04 9.51739 104.49737 39329 ft 496 kts
2026-04-15 08:05 9.55155 104.50314 38683 ft 497 kts
2026-04-15 08:05 9.58524 104.50882 37929 ft 498 kts
2026-04-15 08:05 9.61950 104.51460 37108 ft 500 kts
2026-04-15 08:05 9.64268 104.51851 36552 ft 501 kts
2026-04-15 08:06 9.67687 104.52428 35745 ft 504 kts
2026-04-15 08:06 9.71154 104.53013 34938 ft 506 kts
2026-04-15 08:06 9.74634 104.53601 34131 ft 509 kts
2026-04-15 08:06 9.78141 104.54193 33243 ft 512 kts
2026-04-15 08:07 9.81671 104.54789 32303 ft 514 kts
2026-04-15 08:07 9.85218 104.55387 31375 ft 517 kts
2026-04-15 08:07 9.88767 104.55986 30452 ft 519 kts
2026-04-15 08:07 9.92347 104.56591 29509 ft 521 kts
2026-04-15 08:08 9.95921 104.57196 28526 ft 521 kts
2026-04-15 08:08 9.99429 104.57789 27487 ft 508 kts
2026-04-15 08:08 10.02870 104.58370 25930 ft 497 kts
2026-04-15 08:08 10.06290 104.58947 24162 ft 495 kts 10°
2026-04-15 08:09 10.09657 104.59533 22865 ft 483 kts 11°
2026-04-15 08:09 10.12859 104.60115 22259 ft 456 kts 11°
2026-04-15 08:09 10.15982 104.60682 21723 ft 450 kts 11°
2026-04-15 08:09 10.19004 104.61228 21148 ft 446 kts 11°
2026-04-15 08:10 10.22053 104.61777 20552 ft 441 kts 11°
2026-04-15 08:10 10.25064 104.62320 19952 ft 438 kts 11°
2026-04-15 08:10 10.28065 104.62861 19361 ft 434 kts 11°
2026-04-15 08:10 10.31030 104.63394 18761 ft 430 kts 11°
2026-04-15 08:11 10.33934 104.63915 18175 ft 427 kts 10°
2026-04-15 08:11 10.36887 104.64445 17502 ft 423 kts 10°
2026-04-15 08:11 10.39738 104.64956 16895 ft 418 kts 10°
2026-04-15 08:11 10.42593 104.65468 16311 ft 414 kts 10°
2026-04-15 08:12 10.45416 104.65976 15713 ft 409 kts 10°
2026-04-15 08:12 10.48210 104.66478 15121 ft 405 kts 10°
2026-04-15 08:12 10.50980 104.66976 14534 ft 401 kts 10°
2026-04-15 08:12 10.53724 104.67469 13956 ft 398 kts 10°
2026-04-15 08:13 10.56440 104.67952 13302 ft 396 kts 10°
2026-04-15 08:13 10.59150 104.68401 12695 ft 391 kts
2026-04-15 08:13 10.61787 104.68834 12105 ft 386 kts
2026-04-15 08:13 10.64424 104.69271 11545 ft 381 kts
2026-04-15 08:14 10.67031 104.69706 10981 ft 377 kts
2026-04-15 08:14 10.69610 104.70138 10523 ft 371 kts
2026-04-15 08:14 10.72109 104.70556 10411 ft 354 kts
2026-04-15 08:14 10.74491 104.70954 10304 ft 337 kts 10°
2026-04-15 08:15 10.76723 104.71329 10178 ft 324 kts
2026-04-15 08:15 10.78905 104.71696 10034 ft 311 kts 10°
2026-04-15 08:15 10.81007 104.72049 9878 ft 300 kts 10°
2026-04-15 08:15 10.83028 104.72388 9688 ft 292 kts
2026-04-15 08:16 10.85036 104.72727 9433 ft 292 kts
2026-04-15 08:16 10.87048 104.73073 9174 ft 294 kts 11°
2026-04-15 08:16 10.88960 104.73770 8919 ft 291 kts 32°
2026-04-15 08:16 10.90604 104.74971 8840 ft 290 kts 38°
2026-04-15 08:17 10.92214 104.76218 8741 ft 291 kts 37°
2026-04-15 08:17 10.93836 104.77459 8640 ft 291 kts 37°
2026-04-15 08:17 10.95454 104.78692 8533 ft 290 kts 37°
2026-04-15 08:17 10.97046 104.79903 8428 ft 290 kts 37°
2026-04-15 08:18 10.98662 104.81131 8331 ft 289 kts 37°
2026-04-15 08:18 11.00274 104.82355 8232 ft 289 kts 37°
2026-04-15 08:18 11.01880 104.83576 8129 ft 289 kts 37°
2026-04-15 08:18 11.03501 104.84807 8031 ft 288 kts 37°
2026-04-15 08:19 11.05108 104.86032 7918 ft 288 kts 37°
2026-04-15 08:19 11.06711 104.87251 7802 ft 288 kts 37°
2026-04-15 08:19 11.08315 104.88468 7711 ft 287 kts 37°
2026-04-15 08:19 11.09916 104.89682 7610 ft 287 kts 37°
2026-04-15 08:20 11.11516 104.90896 7495 ft 286 kts 37°
2026-04-15 08:20 11.13113 104.92109 7394 ft 286 kts 37°
2026-04-15 08:20 11.14684 104.93303 7294 ft 285 kts 37°
2026-04-15 08:20 11.16295 104.94528 7178 ft 285 kts 37°
2026-04-15 08:21 11.17861 104.95719 7085 ft 285 kts 37°
2026-04-15 08:21 11.19450 104.96926 6978 ft 284 kts 37°
2026-04-15 08:21 11.21035 104.98130 6874 ft 284 kts 37°
2026-04-15 08:21 11.22620 104.99337 6767 ft 284 kts 37°
2026-04-15 08:22 11.24200 105.00540 6655 ft 283 kts 37°
2026-04-15 08:22 11.25774 105.01736 6558 ft 283 kts 37°
2026-04-15 08:22 11.27352 105.02936 6452 ft 282 kts 37°
2026-04-15 08:22 11.28926 105.04137 6357 ft 282 kts 37°
2026-04-15 08:23 11.30498 105.05333 6247 ft 281 kts 37°
2026-04-15 08:23 11.32066 105.06527 6137 ft 281 kts 37°
2026-04-15 08:23 11.33683 105.07644 6025 ft 281 kts 28°
2026-04-15 08:23 11.35544 105.08148 5930 ft 283 kts
2026-04-15 08:24 11.37495 105.07922 5682 ft 282 kts 349°
2026-04-15 08:24 11.39421 105.07515 5462 ft 283 kts 348°
2026-04-15 08:24 11.41353 105.07107 5272 ft 283 kts 348°
2026-04-15 08:24 11.43279 105.06709 5067 ft 283 kts 348°
2026-04-15 08:25 11.45212 105.06321 4871 ft 283 kts 349°
2026-04-15 08:25 11.47124 105.05943 4667 ft 283 kts 348°
2026-04-15 08:25 11.49060 105.05557 4462 ft 283 kts 348°
2026-04-15 08:25 11.51021 105.05167 4262 ft 282 kts 349°
2026-04-15 08:26 11.52920 105.04795 4056 ft 282 kts 348°
2026-04-15 08:26 11.54840 105.04413 3863 ft 281 kts 348°
2026-04-15 08:26 11.56764 105.04037 3678 ft 281 kts 349°
2026-04-15 08:26 11.58681 105.03661 3453 ft 279 kts 348°
2026-04-15 08:27 11.60567 105.03182 3264 ft 280 kts 338°
2026-04-15 08:27 11.62180 105.02102 3079 ft 277 kts 316°
2026-04-15 08:27 11.63556 105.00752 2948 ft 269 kts 314°
2026-04-15 08:27 11.64855 104.99431 2853 ft 257 kts 313°
2026-04-15 08:28 11.65695 104.97904 2763 ft 243 kts 278°
2026-04-15 08:28 11.65522 104.96264 2680 ft 227 kts 244°
2026-04-15 08:28 11.64790 104.94907 2540 ft 217 kts 228°
2026-04-15 08:28 11.63713 104.93848 2274 ft 215 kts 219°
2026-04-15 08:29 11.62634 104.92818 1967 ft 207 kts 225°
2026-04-15 08:29 11.61696 104.91762 1739 ft 195 kts 225°
2026-04-15 08:29 11.60763 104.90800 1488 ft 186 kts 223°
2026-04-15 08:29 11.59882 104.89888 1231 ft 174 kts 225°
2026-04-15 08:30 11.59067 104.89024 1007 ft 167 kts 224°
2026-04-15 08:30 11.58285 104.88206 838 ft 156 kts 221°
2026-04-15 08:30 11.57549 104.87463 660 ft 144 kts 219°
2026-04-15 08:30 11.56852 104.86758 473 ft 137 kts 221°
2026-04-15 08:31 11.56221 104.86059 285 ft 133 kts 224°
2026-04-15 08:31 11.55570 104.85367 115 ft 137 kts 222°
2026-04-15 08:31 11.54911 104.84699 65 ft 124 kts 231°
2026-04-15 08:31 11.54473 104.84226 63 ft 51 kts 225°
2026-04-15 08:32 11.54293 104.84040 63 ft 35 kts 225°
2026-04-15 08:32 11.54175 104.83916 66 ft 0 kts 225°
2026-04-15 08:32 11.54143 104.83877 61 ft 21 kts 239°
2026-04-15 08:32 11.54159 104.83794 60 ft 10 kts 309°
2026-04-15 08:33 11.54225 104.83752 65 ft 12 kts 358°
2026-04-15 08:33 11.54301 104.83796 62 ft 14 kts 45°
2026-04-15 08:33 11.54353 104.83849 62 ft 10 kts 45°
2026-04-15 08:33 11.54411 104.83908 61 ft 13 kts 45°
2026-04-15 08:34 11.54481 104.83981 59 ft 16 kts 46°
2026-04-15 08:34 11.54554 104.84059 59 ft 13 kts 46°
2026-04-15 08:34 11.54605 104.84113 62 ft 12 kts 46°
2026-04-15 08:34 11.54661 104.84171 59 ft 9 kts 45°
2026-04-15 08:35 11.54712 104.84222 61 ft 12 kts 45°
2026-04-15 08:35 11.54770 104.84282 61 ft 13 kts 45°
2026-04-15 08:35 11.54822 104.84336 59 ft 10 kts 45°
2026-04-15 08:35 11.54874 104.84390 61 ft 12 kts 46°
2026-04-15 08:36 11.54938 104.84457 59 ft 12 kts 45°
2026-04-15 08:36 11.54979 104.84500 64 ft 9 kts 45°
2026-04-15 08:36 11.55022 104.84545 64 ft 7 kts 45°
2026-04-15 08:36 11.55066 104.84573 63 ft 8 kts 25°
2026-04-15 08:37 11.55130 104.84581 59 ft 11 kts 355°
2026-04-15 08:37 11.55187 104.84576 66 ft 2 kts 354°
2026-04-15 08:37 11.55204 104.84574 60 ft 4 kts 355°
2026-04-15 08:37 11.55215 104.84573 63 ft 0 kts 354°